Вернуться в каталог

DELTA 1 DEB

АктивенSSO
NORAD 7065·DEBRIS·🇺🇸 United States

Запущен Nov 6, 1973 с Vandenberg Space Force Base

Loading…

Ближайшие Пролёты (ближайшие 24 часа)

TLE

СвежийSource: Space-Track

Эпоха: Sep 12, 2026, 09:25 UTC

1 07065U 73086BH  26255.39281583  .00000268  00000-0  25010-2 0  9997
2 07065 101.8700 224.6493 0044643 280.5530 234.7286 12.34388950374763

Отслеживайте DELTA 1 DEB в реальном времени с AllMySat

Download on the App Store